Weather History for El Paso, TX

Change the Weather History Date:

Thursday, March 27, 2014

  Actual Average Record
Temperature  
Mean Temperature 68 °F 59 °F  
Max Temperature 77 °F 73 °F 88 °F (1971)
Min Temperature 59 °F 45 °F 23 °F (1955)
Degree Days  
Heating Degree Days 0 6  
Month to date heating degree days 171 247  
Since 1 July heating degree days 1959 2350  
Cooling Degree Days 3 1  
Month to date cooling degree days 11 2  
Year to date cooling degree days 18 2  
Growing Degree Days 18 (Base 50)    
Moisture  
Dew Point 19 °F    
Average Humidity 18    
Maximum Humidity 26    
Minimum Humidity 9    
Precipitation  
Precipitation 0.00 in 0.00 in 0.60 in (1888)
Month to date precipitation 0.18 0.23  
Year to date precipitation 0.18 1.09  
Snow  
Snow 0.00 in - - ()
Month to date snowfall 0.0  
Since 1 July snowfall T  
Snow Depth 0.00 in    
Sea Level Pressure  
Sea Level Pressure 29.68 in    
Wind  
Wind Speed 21 mph (West)    
Max Wind Speed 41 mph    
Max Gust Speed 49 mph    
Visibility 10 miles    
Events      
T = Trace of Precipitation, MM = Missing Value Source: NWS Daily Summary

Daily Weather History Graph

Daily Weather History Graph

Search for Another Location

Airport:

Trip Planner

Search our weather history database for the weather conditions in past years. The results will help you decide how hot, cold, wet, or windy it might be!

Date:

Astronomy

Mar. 27, 2014 Rise Set
Actual Time 7:00 AM MDT 7:21 PM MDT
Civil Twilight 6:35 AM MDT 7:46 PM MDT
Nautical Twilight 6:07 AM MDT 8:14 PM MDT
Astronomical Twilight 5:38 AM MDT 8:43 PM MDT
Moon 4:41 AM MDT (3/27) 4:22 PM MDT (3/27)
Length of Visible Light 13h 10m
Length of Day
12h 21m
Waning Crescent, 12% of the Moon is Illuminated
Mar 27
Waning Crescent
Mar 30
New
Apr 7
First Quarter
Apr 15
Full
Apr 22
Last Quarter

Hourly Weather History & Observations

Time (MDT) Temp. Dew Point Humidity Pressure Visibility Wind Dir Wind Speed Gust Speed Precip Events Conditions
12:51 AM 66.0 °F 12.9 °F 13% 29.60 in 10.0 mi WSW 28.8 mph 34.5 mph N/A   Scattered Clouds
1:51 AM 64.9 °F 14.0 °F 14% 29.61 in 10.0 mi WSW 34.5 mph 46.0 mph N/A   Scattered Clouds
2:51 AM 64.0 °F 15.1 °F 15% 29.61 in 10.0 mi WSW 25.3 mph 40.3 mph N/A   Scattered Clouds
3:51 AM 63.0 °F 18.0 °F 18% 29.62 in 10.0 mi WSW 33.4 mph 43.7 mph N/A   Partly Cloudy
4:51 AM 62.1 °F 19.0 °F 19% 29.62 in 10.0 mi West 24.2 mph 39.1 mph N/A   Partly Cloudy
5:51 AM 61.0 °F 21.9 °F 22% 29.65 in 10.0 mi West 26.5 mph 38.0 mph N/A   Partly Cloudy
6:51 AM 61.0 °F 21.0 °F 21% 29.68 in 10.0 mi West 19.6 mph 33.4 mph N/A   Scattered Clouds
7:51 AM 60.1 °F 21.0 °F 22% 29.74 in 10.0 mi NW 11.5 mph 17.3 mph N/A   Scattered Clouds
8:51 AM 60.1 °F 21.9 °F 23% 29.77 in 10.0 mi East 3.5 mph - N/A   Scattered Clouds
9:51 AM 63.0 °F 19.0 °F 18% 29.77 in 10.0 mi WSW 8.1 mph - N/A   Scattered Clouds
10:51 AM 64.9 °F 21.0 °F 19% 29.76 in 10.0 mi West 15.0 mph - N/A   Partly Cloudy
11:51 AM 68.0 °F 19.9 °F 16% 29.76 in 10.0 mi WSW 27.6 mph 40.3 mph N/A   Partly Cloudy
12:51 PM 70.0 °F 19.9 °F 15% 29.73 in 10.0 mi West 17.3 mph 25.3 mph N/A   Partly Cloudy
1:51 PM 73.0 °F 16.0 °F 11% 29.69 in 10.0 mi WSW 26.5 mph 36.8 mph N/A   Partly Cloudy
2:51 PM 77.0 °F 16.0 °F 10% 29.65 in 10.0 mi West 29.9 mph 42.6 mph N/A   Partly Cloudy
3:51 PM 75.9 °F 15.1 °F 10% 29.63 in 10.0 mi West 21.9 mph 38.0 mph N/A   Partly Cloudy
4:51 PM 77.0 °F 14.0 °F 9% 29.63 in 10.0 mi WSW 25.3 mph 36.8 mph N/A   Partly Cloudy
5:51 PM 75.0 °F 15.1 °F 10% 29.64 in 10.0 mi WSW 29.9 mph 38.0 mph N/A   Partly Cloudy
6:51 PM 73.0 °F 16.0 °F 11% 29.64 in 10.0 mi WSW 28.8 mph - N/A   Partly Cloudy
7:51 PM 71.1 °F 18.0 °F 13% 29.66 in 10.0 mi West 17.3 mph 27.6 mph N/A   Partly Cloudy
8:51 PM 70.0 °F 18.0 °F 14% 29.69 in 10.0 mi WSW 21.9 mph 28.8 mph N/A   Partly Cloudy
9:51 PM 66.9 °F 25.0 °F 21% 29.72 in 10.0 mi WNW 19.6 mph 26.5 mph N/A   Partly Cloudy
10:51 PM 64.9 °F 27.0 °F 24% 29.74 in 10.0 mi NW 18.4 mph - N/A   Partly Cloudy
11:51 PM 64.0 °F 28.0 °F 26% 29.75 in 10.0 mi WNW 12.7 mph - N/A   Partly Cloudy